| time (UTC) | temp C | wind direction | speed KPH | gust KPH | rain 1hr cm | rain 24hr cm | rain mn cm | humidity % | barometer mb |
| 20260510183017 | 28 | 132 | 8.0 | 0.0 | 0.00 | 0.00 | 0.00 | 67 | 1013.1 |
| 20260510182555 | 28 | 141 | 9.7 | 0.0 | 0.00 | 0.00 | 0.00 | 67 | 1013.1 |
| 20260510182029 | 28 | 153 | 8.0 | 0.0 | 0.00 | 0.00 | 0.00 | 67 | 1013.1 |
| 20260510181535 | 28 | 154 | 8.0 | 0.0 | 0.00 | 0.00 | 0.00 | 69 | 1013.0 |
| 20260510181007 | 28 | 77 | 9.7 | 0.0 | 0.00 | 0.00 | 0.00 | 67 | 1013.0 |
| 20260510180546 | 28 | 138 | 8.0 | 0.0 | 0.00 | 0.00 | 0.00 | 69 | 1013.1 |
| 20260510180034 | 28 | 137 | 6.4 | 0.0 | 0.00 | 0.00 | 0.00 | 68 | 1013.2 |
| 20260510175505 | 28 | 157 | 8.0 | 0.0 | 0.00 | 0.00 | 0.00 | 70 | 1013.3 |
| 20260510175044 | 28 | 134 | 9.7 | 0.0 | 0.00 | 0.00 | 0.00 | 69 | 1013.3 |
| 20260510174557 | 28 | 148 | 8.0 | 0.0 | 0.00 | 0.00 | 0.00 | 69 | 1013.3 |
| 20260510174024 | 28 | 77 | 9.7 | 0.0 | 0.00 | 0.00 | 0.00 | 70 | 1013.3 |
| 20260510173603 | 28 | 160 | 9.7 | 0.0 | 0.00 | 0.00 | 0.00 | 69 | 1013.4 |
| 20260510173049 | 28 | 153 | 11.3 | 0.0 | 0.00 | 0.00 | 0.00 | 69 | 1013.4 |
| 20260510172527 | 27 | 136 | 11.3 | 0.0 | 0.00 | 0.00 | 0.00 | 71 | 1013.6 |
| 20260510172106 | 27 | 126 | 11.3 | 0.0 | 0.00 | 0.00 | 0.00 | 71 | 1013.6 |
| 20260510171551 | 27 | 128 | 12.9 | 0.0 | 0.00 | 0.00 | 0.00 | 73 | 1013.6 |
| 20260510171022 | 27 | 159 | 11.3 | 0.0 | 0.00 | 0.00 | 0.00 | 70 | 1013.6 |
| 20260510170601 | 27 | 144 | 9.7 | 0.0 | 0.00 | 0.00 | 0.00 | 73 | 1013.6 |
| 20260510170046 | 27 | 132 | 9.7 | 0.0 | 0.00 | 0.00 | 0.00 | 72 | 1013.7 |
| 20260510165522 | 27 | 128 | 8.0 | 0.0 | 0.00 | 0.00 | 0.00 | 77 | 1013.9 |
| 20260510165059 | 27 | 113 | 6.4 | 0.0 | 0.00 | 0.00 | 0.00 | 75 | 1013.9 |
| 20260510164502 | 27 | 132 | 6.4 | 0.0 | 0.00 | 0.00 | 0.00 | 75 | 1014.0 |
| 20260510164041 | 27 | 119 | 6.4 | 0.0 | 0.00 | 0.00 | 0.00 | 76 | 1014.1 |
| 20260510163510 | 27 | 86 | 6.4 | 0.0 | 0.00 | 0.00 | 0.00 | 76 | 1014.2 |
| 20260510163107 | 26 | 76 | 6.4 | 0.0 | 0.00 | 0.00 | 0.00 | 77 | 1014.2 |
| 20260510162536 | 26 | 144 | 6.4 | 0.0 | 0.00 | 0.00 | 0.00 | 77 | 1014.2 |
| 20260510162006 | 26 | 134 | 6.4 | 0.0 | 0.00 | 0.00 | 0.00 | 80 | 1014.1 |
| 20260510161609 | 26 | 135 | 6.4 | 0.0 | 0.00 | 0.00 | 0.00 | 78 | 1014.1 |
| 20260510161038 | 26 | 150 | 6.4 | 0.0 | 0.00 | 0.00 | 0.00 | 78 | 1014.2 |
| 20260510160510 | 26 | 132 | 6.4 | 0.0 | 0.00 | 0.00 | 0.00 | 78 | 1014.2 |
| 20260510160151 | 26 | 138 | 6.4 | 0.0 | 0.00 | 0.00 | 0.00 | 78 | 1014.3 |
| 20260510155533 | 26 | 114 | 4.8 | 0.0 | 0.00 | 0.00 | 0.00 | 78 | 1014.3 |
| 20260510155009 | 26 | 162 | 4.8 | 0.0 | 0.00 | 0.00 | 0.00 | 81 | 1014.2 |
| 20260510154614 | 26 | 90 | 4.8 | 0.0 | 0.00 | 0.00 | 0.00 | 80 | 1014.2 |
| 20260510154036 | 25 | 100 | 4.8 | 0.0 | 0.00 | 0.00 | 0.00 | 80 | 1014.2 |
| 20260510153510 | 25 | 98 | 6.4 | 0.0 | 0.00 | 0.00 | 0.00 | 81 | 1014.2 |
| 20260510153102 | 25 | 134 | 6.4 | 0.0 | 0.00 | 0.00 | 0.00 | 81 | 1014.1 |
| 20260510152536 | 25 | 145 | 4.8 | 0.0 | 0.00 | 0.00 | 0.00 | 79 | 1014.0 |
| 20260510152013 | 25 | 76 | 4.8 | 0.0 | 0.00 | 0.00 | 0.00 | 81 | 1014.1 |
| 20260510151618 | 25 | 76 | 4.8 | 0.0 | 0.00 | 0.00 | 0.00 | 81 | 1014.1 |
| 20260510151041 | 25 | 140 | 4.8 | 0.0 | 0.00 | 0.00 | 0.00 | 81 | 1014.1 |
| 20260510150514 | 25 | 146 | 4.8 | 0.0 | 0.00 | 0.00 | 0.00 | 81 | 1014.1 |
| 20260510150020 | 25 | 82 | 4.8 | 0.0 | 0.00 | 0.00 | 0.00 | 81 | 1014.1 |
| 20260510145603 | 25 | 140 | 4.8 | 0.0 | 0.00 | 0.00 | 0.00 | 80 | 1014.1 |
| 20260510145034 | 25 | 148 | 4.8 | 0.0 | 0.00 | 0.00 | 0.00 | 80 | 1014.0 |
| 20260510144540 | 25 | 133 | 3.2 | 0.0 | 0.00 | 0.00 | 0.00 | 81 | 1014.0 |
| 20260510144016 | 25 | 74 | 4.8 | 0.0 | 0.00 | 0.00 | 0.00 | 81 | 1013.9 |
| 20260510143549 | 25 | 109 | 4.8 | 0.0 | 0.00 | 0.00 | 0.00 | 80 | 1013.9 |
| 20260510143055 | 25 | 134 | 3.2 | 0.0 | 0.00 | 0.00 | 0.00 | 80 | 1013.9 |
| 20260510142530 | 24 | 88 | 1.6 | 0.0 | 0.00 | 0.00 | 0.00 | 81 | 1013.9 |
| 20260510142107 | 24 | 87 | 3.2 | 0.0 | 0.00 | 0.00 | 0.00 | 82 | 1013.9 |
| 20260510141553 | 24 | 120 | 3.2 | 0.0 | 0.00 | 0.00 | 0.00 | 82 | 1013.8 |
| 20260510141022 | 23 | 141 | 3.2 | 0.0 | 0.00 | 0.00 | 0.00 | 82 | 1013.7 |
| 20260510140602 | 23 | 66 | 3.2 | 0.0 | 0.00 | 0.00 | 0.00 | 84 | 1013.7 |
| 20260510140001 | 23 | 66 | 3.2 | 0.0 | 0.00 | 0.00 | 0.00 | 85 | 1013.7 |
| 20260510135540 | 23 | 138 | 3.2 | 0.0 | 0.00 | 0.00 | 0.00 | 84 | 1013.6 |
| 20260510135016 | 23 | 134 | 4.8 | 0.0 | 0.00 | 0.00 | 0.00 | 84 | 1013.4 |
| 20260510134522 | 22 | 136 | 6.4 | 0.0 | 0.00 | 0.00 | 0.00 | 85 | 1013.4 |
| 20260510134053 | 22 | 142 | 6.4 | 0.0 | 0.00 | 0.00 | 0.00 | 85 | 1013.4 |
| 20260510133527 | 22 | 147 | 6.4 | 0.0 | 0.00 | 0.00 | 0.00 | 87 | 1013.2 |
| 20260510133030 | 22 | 144 | 6.4 | 0.0 | 0.00 | 0.00 | 0.00 | 87 | 1013.1 |
| 20260510132506 | 22 | 146 | 6.4 | 0.0 | 0.00 | 0.00 | 0.00 | 89 | 1013.1 |
| 20260510132043 | 21 | 136 | 6.4 | 0.0 | 0.00 | 0.00 | 0.00 | 89 | 1013.0 |
| 20260510131546 | 21 | 145 | 4.8 | 0.0 | 0.00 | 0.00 | 0.00 | 90 | 1012.9 |
| 20260510131019 | 21 | 159 | 4.8 | 0.0 | 0.00 | 0.00 | 0.00 | 91 | 1012.7 |
| 20260510130555 | 21 | 190 | 4.8 | 0.0 | 0.00 | 0.00 | 0.00 | 92 | 1012.7 |
| 20260510130043 | 20 | 198 | 3.2 | 0.0 | 0.00 | 0.00 | 0.00 | 92 | 1012.6 |
| 20260510125515 | 20 | 198 | 1.6 | 0.0 | 0.00 | 0.00 | 0.00 | 92 | 1012.5 |
| 20260510125050 | 20 | 200 | 0.0 | 0.0 | 0.00 | 0.00 | 0.00 | 92 | 1012.4 |
| 20260510124604 | 20 | 200 | 1.6 | 0.0 | 0.00 | 0.00 | 0.00 | 92 | 1012.4 |
| 20260510124031 | 20 | 200 | 1.6 | 0.0 | 0.00 | 0.00 | 0.00 | 92 | 1012.2 |
| 20260510123502 | 19 | 200 | 0.0 | 0.0 | 0.00 | 0.00 | 0.00 | 92 | 1012.2 |
| 20260510123002 | 19 | 200 | 0.0 | 0.0 | 0.00 | 0.00 | 0.00 | 92 | 1012.2 |
| 20260510122541 | 18 | 200 | 0.0 | 0.0 | 0.00 | 0.00 | 0.00 | 92 | 1012.1 |
| 20260510122016 | 18 | 200 | 0.0 | 0.0 | 0.00 | 0.00 | 0.00 | 92 | 1012.0 |
| 20260510121522 | 18 | 200 | 0.0 | 0.0 | 0.00 | 0.00 | 0.00 | 92 | 1011.8 |
| 20260510121100 | 18 | 200 | 0.0 | 0.0 | 0.00 | 0.00 | 0.00 | 92 | 1011.8 |
| 20260510120529 | 18 | 200 | 0.0 | 0.0 | 0.00 | 0.00 | 0.00 | 92 | 1011.7 |
| 20260510120033 | 18 | 200 | 0.0 | 0.0 | 0.00 | 0.00 | 0.00 | 92 | 1011.5 |
| 20260510115508 | 18 | 200 | 0.0 | 0.0 | 0.00 | 0.00 | 0.00 | 91 | 1011.4 |
| 20260510115042 | 19 | 200 | 0.0 | 0.0 | 0.00 | 0.00 | 0.00 | 92 | 1011.4 |
| 20260510114545 | 19 | 200 | 1.6 | 0.0 | 0.00 | 0.00 | 0.00 | 92 | 1011.1 |
| 20260510114014 | 19 | 200 | 1.6 | 0.0 | 0.00 | 0.00 | 0.00 | 92 | 1011.0 |
| 20260510113553 | 18 | 200 | 0.0 | 0.0 | 0.00 | 0.00 | 0.00 | 92 | 1011.0 |
| 20260510113113 | 18 | 200 | 0.0 | 0.0 | 0.00 | 0.00 | 0.00 | 91 | 1011.0 |
| 20260510112535 | 18 | 200 | 0.0 | 0.0 | 0.00 | 0.00 | 0.00 | 91 | 1011.0 |
| 20260510112005 | 18 | 200 | 0.0 | 0.0 | 0.00 | 0.00 | 0.00 | 91 | 1011.1 |
| 20260510111617 | 18 | 200 | 0.0 | 0.0 | 0.00 | 0.00 | 0.00 | 91 | 1011.1 |
| 20260510111029 | 18 | 200 | 0.0 | 0.0 | 0.00 | 0.00 | 0.00 | 90 | 1011.0 |
| 20260510110503 | 19 | 200 | 0.0 | 0.0 | 0.00 | 0.00 | 0.00 | 90 | 1011.1 |
| 20260510110050 | 19 | 200 | 0.0 | 0.0 | 0.00 | 0.00 | 0.00 | 90 | 1011.1 |
| 20260510105513 | 19 | 200 | 0.0 | 0.0 | 0.00 | 0.00 | 0.00 | 90 | 1011.0 |
| 20260510105050 | 19 | 200 | 0.0 | 0.0 | 0.00 | 0.00 | 0.00 | 90 | 1011.0 |
| 20260510104553 | 19 | 200 | 0.0 | 0.0 | 0.00 | 0.00 | 0.00 | 89 | 1011.0 |
| 20260510104028 | 20 | 200 | 0.0 | 0.0 | 0.00 | 0.00 | 0.00 | 89 | 1011.0 |
| 20260510103608 | 20 | 200 | 0.0 | 0.0 | 0.00 | 0.00 | 0.00 | 89 | 1010.9 |
| 20260510103002 | 20 | 200 | 0.0 | 0.0 | 0.00 | 0.00 | 0.00 | 89 | 1010.9 |
| 20260510102537 | 20 | 200 | 0.0 | 0.0 | 0.00 | 0.00 | 0.00 | 89 | 1010.9 |
| 20260510102010 | 20 | 200 | 0.0 | 0.0 | 0.00 | 0.00 | 0.00 | 88 | 1010.8 |
| 20260510101600 | 20 | 200 | 0.0 | 0.0 | 0.00 | 0.00 | 0.00 | 88 | 1010.8 |
| 20260510101033 | 20 | 200 | 1.6 | 0.0 | 0.00 | 0.00 | 0.00 | 88 | 1010.6 |
| 20260510100513 | 20 | 200 | 1.6 | 0.0 | 0.00 | 0.00 | 0.00 | 88 | 1010.6 |
| 20260510100014 | 20 | 200 | 0.0 | 0.0 | 0.00 | 0.00 | 0.00 | 88 | 1010.6 |
| 20260510095554 | 21 | 200 | 0.0 | 0.0 | 0.00 | 0.00 | 0.00 | 87 | 1010.6 |
| 20260510095022 | 21 | 200 | 1.6 | 0.0 | 0.00 | 0.00 | 0.00 | 87 | 1010.5 |
| 20260510094526 | 21 | 200 | 3.2 | 0.0 | 0.00 | 0.00 | 0.00 | 87 | 1010.4 |
| 20260510094105 | 21 | 201 | 3.2 | 0.0 | 0.00 | 0.00 | 0.00 | 87 | 1010.3 |
| 20260510093538 | 21 | 161 | 3.2 | 0.0 | 0.00 | 0.00 | 0.00 | 87 | 1010.1 |
| 20260510093059 | 21 | 161 | 3.2 | 0.0 | 0.00 | 0.00 | 0.00 | 87 | 1010.1 |
| 20260510092518 | 21 | 161 | 4.8 | 0.0 | 0.00 | 0.00 | 0.00 | 86 | 1010.1 |
| 20260510092054 | 21 | 139 | 4.8 | 0.0 | 0.00 | 0.00 | 0.00 | 86 | 1010.1 |
| 20260510091556 | 21 | 138 | 3.2 | 0.0 | 0.00 | 0.00 | 0.00 | 86 | 1010.1 |
| 20260510091033 | 21 | 148 | 3.2 | 0.0 | 0.00 | 0.00 | 0.00 | 86 | 1010.1 |
| 20260510090505 | 21 | 148 | 4.8 | 0.0 | 0.00 | 0.00 | 0.00 | 85 | 1010.2 |
| 20260510090006 | 21 | 148 | 4.8 | 0.0 | 0.00 | 0.00 | 0.00 | 85 | 1010.2 |
| 20260510085544 | 21 | 142 | 3.2 | 0.0 | 0.00 | 0.00 | 0.00 | 85 | 1010.2 |
| 20260510085022 | 21 | 144 | 3.2 | 0.0 | 0.00 | 0.00 | 0.00 | 85 | 1010.2 |
| 20260510084529 | 21 | 142 | 3.2 | 0.0 | 0.00 | 0.00 | 0.00 | 85 | 1010.1 |
| 20260510084107 | 21 | 170 | 4.8 | 0.0 | 0.00 | 0.00 | 0.00 | 85 | 1010.1 |
| 20260510083539 | 21 | 178 | 4.8 | 0.0 | 0.00 | 0.00 | 0.00 | 84 | 1010.3 |
| 20260510083038 | 21 | 144 | 3.2 | 0.0 | 0.00 | 0.00 | 0.00 | 84 | 1010.2 |
| 20260510082513 | 22 | 147 | 4.8 | 0.0 | 0.00 | 0.00 | 0.00 | 84 | 1010.3 |
| 20260510082047 | 22 | 147 | 4.8 | 0.0 | 0.00 | 0.00 | 0.00 | 84 | 1010.4 |
| 20260510081535 | 22 | 146 | 4.8 | 0.0 | 0.00 | 0.00 | 0.00 | 83 | 1010.6 |
| 20260510081008 | 22 | 146 | 4.8 | 0.0 | 0.00 | 0.00 | 0.00 | 83 | 1010.6 |
| 20260510080542 | 22 | 151 | 4.8 | 0.0 | 0.00 | 0.00 | 0.00 | 83 | 1010.6 |
| 20260510080044 | 22 | 155 | 4.8 | 0.0 | 0.00 | 0.00 | 0.00 | 82 | 1010.7 |
| 20260510075504 | 22 | 147 | 3.2 | 0.0 | 0.00 | 0.00 | 0.00 | 82 | 1010.6 |
| 20260510075041 | 22 | 147 | 4.8 | 0.0 | 0.00 | 0.00 | 0.00 | 82 | 1010.6 |
| 20260510074544 | 22 | 150 | 3.2 | 0.0 | 0.00 | 0.00 | 0.00 | 81 | 1010.6 |
| 20260510074022 | 22 | 155 | 3.2 | 0.0 | 0.00 | 0.00 | 0.00 | 81 | 1010.7 |
| 20260510073558 | 22 | 155 | 3.2 | 0.0 | 0.00 | 0.00 | 0.00 | 81 | 1010.7 |
| 20260510073102 | 22 | 155 | 3.2 | 0.0 | 0.00 | 0.00 | 0.00 | 81 | 1010.8 |
| 20260510072538 | 22 | 156 | 4.8 | 0.0 | 0.00 | 0.00 | 0.00 | 81 | 1010.8 |
| 20260510072011 | 22 | 140 | 4.8 | 0.0 | 0.00 | 0.00 | 0.00 | 81 | 1010.8 |
| 20260510071521 | 22 | 160 | 4.8 | 0.0 | 0.00 | 0.00 | 0.00 | 81 | 1010.8 |
| 20260510071058 | 22 | 153 | 4.8 | 0.0 | 0.00 | 0.00 | 0.00 | 81 | 1010.9 |
| 20260510070533 | 22 | 150 | 4.8 | 0.0 | 0.00 | 0.00 | 0.00 | 80 | 1010.7 |
| 20260510070042 | 22 | 146 | 4.8 | 0.0 | 0.00 | 0.00 | 0.00 | 80 | 1010.7 |
| 20260510065522 | 22 | 144 | 1.6 | 0.0 | 0.00 | 0.00 | 0.00 | 79 | 1010.7 |
| 20260510065058 | 22 | 144 | 1.6 | 0.0 | 0.00 | 0.00 | 0.00 | 79 | 1010.6 |
| 20260510064608 | 23 | 144 | 3.2 | 0.0 | 0.00 | 0.00 | 0.00 | 79 | 1010.6 |
| 20260510064030 | 23 | 144 | 4.8 | 0.0 | 0.00 | 0.00 | 0.00 | 79 | 1010.5 |
| 20260510063505 | 23 | 133 | 3.2 | 0.0 | 0.00 | 0.00 | 0.00 | 78 | 1010.6 |
| 20260510063012 | 23 | 133 | 3.2 | 0.0 | 0.00 | 0.00 | 0.00 | 78 | 1010.6 |
| 20260510062551 | 23 | 133 | 3.2 | 0.0 | 0.00 | 0.00 | 0.00 | 78 | 1010.6 |
| 20260510062020 | 23 | 133 | 4.8 | 0.0 | 0.00 | 0.00 | 0.00 | 78 | 1010.6 |
| 20260510061524 | 22 | 132 | 3.2 | 0.0 | 0.00 | 0.00 | 0.00 | 79 | 1010.6 |
| 20260510061103 | 22 | 132 | 3.2 | 0.0 | 0.00 | 0.00 | 0.00 | 80 | 1010.6 |
| 20260510060539 | 22 | 132 | 1.6 | 0.0 | 0.00 | 0.00 | 0.00 | 80 | 1010.6 |
| 20260510060043 | 23 | 132 | 1.6 | 0.0 | 0.00 | 0.00 | 0.00 | 81 | 1010.6 |
| 20260510055518 | 23 | 132 | 3.2 | 0.0 | 0.00 | 0.00 | 0.00 | 82 | 1010.5 |
| 20260510055054 | 22 | 132 | 3.2 | 0.0 | 0.00 | 0.00 | 0.00 | 82 | 1010.5 |
| 20260510054556 | 22 | 132 | 3.2 | 0.0 | 0.00 | 0.00 | 0.00 | 84 | 1010.5 |
| 20260510054032 | 22 | 132 | 3.2 | 0.0 | 0.00 | 0.00 | 0.00 | 86 | 1010.5 |
| 20260510053502 | 22 | 132 | 1.6 | 0.0 | 0.00 | 0.00 | 0.00 | 87 | 1010.5 |
| 20260510053007 | 22 | 132 | 1.6 | 0.0 | 0.00 | 0.00 | 0.00 | 88 | 1010.5 |
| 20260510052547 | 22 | 132 | 1.6 | 0.0 | 0.00 | 0.00 | 0.00 | 89 | 1010.5 |
| 20260510052021 | 22 | 132 | 1.6 | 0.0 | 0.00 | 0.00 | 0.00 | 89 | 1010.4 |
| 20260510051524 | 22 | 132 | 1.6 | 0.0 | 0.00 | 0.00 | 0.00 | 89 | 1010.5 |
| 20260510051100 | 22 | 132 | 0.0 | 0.0 | 0.00 | 0.00 | 0.00 | 90 | 1010.5 |
| 20260510050533 | 22 | 132 | 0.0 | 0.0 | 0.00 | 0.00 | 0.00 | 89 | 1010.5 |
| 20260510050038 | 22 | 132 | 0.0 | 0.0 | 0.00 | 0.00 | 0.00 | 89 | 1010.5 |
| 20260510045510 | 22 | 132 | 0.0 | 0.0 | 0.00 | 0.00 | 0.00 | 89 | 1010.4 |
| 20260510045049 | 22 | 132 | 0.0 | 0.0 | 0.00 | 0.00 | 0.00 | 89 | 1010.4 |
| 20260510044628 | 22 | 132 | 0.0 | 0.0 | 0.00 | 0.00 | 0.00 | 88 | 1010.4 |
| 20260510044027 | 22 | 132 | 0.0 | 0.0 | 0.00 | 0.00 | 0.00 | 88 | 1010.4 |
| 20260510043603 | 22 | 132 | 0.0 | 0.0 | 0.00 | 0.00 | 0.00 | 88 | 1010.5 |
| 20260510043002 | 22 | 132 | 0.0 | 0.0 | 0.00 | 0.00 | 0.00 | 87 | 1010.6 |
| 20260510042541 | 22 | 132 | 0.0 | 0.0 | 0.00 | 0.00 | 0.00 | 87 | 1010.6 |
| 20260510042019 | 22 | 132 | 0.0 | 0.0 | 0.00 | 0.00 | 0.00 | 87 | 1010.6 |
| 20260510041522 | 22 | 132 | 0.0 | 0.0 | 0.00 | 0.00 | 0.00 | 86 | 1010.6 |
| 20260510041100 | 22 | 132 | 0.0 | 0.0 | 0.00 | 0.00 | 0.00 | 86 | 1010.6 |
| 20260510040530 | 22 | 132 | 0.0 | 0.0 | 0.00 | 0.00 | 0.00 | 85 | 1010.6 |
| 20260510040035 | 23 | 132 | 0.0 | 0.0 | 0.00 | 0.00 | 0.00 | 85 | 1010.5 |
| 20260510035505 | 23 | 132 | 0.0 | 0.0 | 0.00 | 0.00 | 0.00 | 84 | 1010.5 |
| 20260510035044 | 23 | 132 | 0.0 | 0.0 | 0.00 | 0.00 | 0.00 | 84 | 1010.4 |
| 20260510034545 | 23 | 132 | 0.0 | 0.0 | 0.00 | 0.00 | 0.00 | 83 | 1010.3 |
| 20260510034022 | 23 | 132 | 0.0 | 0.0 | 0.00 | 0.00 | 0.00 | 83 | 1010.3 |
| 20260510033557 | 23 | 132 | 0.0 | 0.0 | 0.00 | 0.00 | 0.00 | 83 | 1010.3 |
| 20260510033103 | 23 | 132 | 0.0 | 0.0 | 0.00 | 0.00 | 0.00 | 83 | 1010.3 |
| 20260510032536 | 23 | 132 | 0.0 | 0.0 | 0.00 | 0.00 | 0.00 | 82 | 1010.2 |
| 20260510032012 | 24 | 132 | 0.0 | 0.0 | 0.00 | 0.00 | 0.00 | 82 | 1010.1 |
| 20260510031601 | 24 | 132 | 0.0 | 0.0 | 0.00 | 0.00 | 0.00 | 82 | 1010.2 |
| 20260510031033 | 24 | 132 | 1.6 | 0.0 | 0.00 | 0.00 | 0.00 | 82 | 1010.1 |
| 20260510030509 | 24 | 132 | 1.6 | 0.0 | 0.00 | 0.00 | 0.00 | 82 | 1010.0 |
| 20260510030011 | 23 | 132 | 1.6 | 0.0 | 0.00 | 0.00 | 0.00 | 82 | 1010.0 |
| 20260510025549 | 24 | 132 | 0.0 | 0.0 | 0.00 | 0.00 | 0.00 | 82 | 1009.9 |
| 20260510025019 | 24 | 132 | 0.0 | 0.0 | 0.00 | 0.00 | 0.00 | 81 | 1009.8 |
| 20260510024525 | 24 | 132 | 0.0 | 0.0 | 0.00 | 0.00 | 0.00 | 80 | 1009.7 |
| 20260510024101 | 25 | 132 | 0.0 | 0.0 | 0.00 | 0.00 | 0.00 | 80 | 1009.6 |
| 20260510023531 | 25 | 132 | 0.0 | 0.0 | 0.00 | 0.00 | 0.00 | 79 | 1009.5 |
| 20260510023035 | 25 | 132 | 0.0 | 0.0 | 0.00 | 0.00 | 0.00 | 78 | 1009.4 |
| 20260510022505 | 25 | 132 | 0.0 | 0.0 | 0.00 | 0.00 | 0.00 | 77 | 1009.3 |
| 20260510022042 | 25 | 132 | 0.0 | 0.0 | 0.00 | 0.00 | 0.00 | 76 | 1009.3 |
| 20260510021548 | 26 | 132 | 0.0 | 0.0 | 0.00 | 0.00 | 0.00 | 76 | 1009.2 |
| 20260510021020 | 26 | 132 | 0.0 | 0.0 | 0.00 | 0.00 | 0.00 | 75 | 1009.1 |
| 20260510020606 | 26 | 132 | 0.0 | 0.0 | 0.00 | 0.00 | 0.00 | 74 | 1009.0 |
| 20260510020007 | 26 | 132 | 0.0 | 0.0 | 0.00 | 0.00 | 0.00 | 74 | 1009.0 |
| 20260510015547 | 26 | 132 | 0.0 | 0.0 | 0.00 | 0.00 | 0.00 | 73 | 1008.9 |
| 20260510015020 | 27 | 132 | 0.0 | 0.0 | 0.00 | 0.00 | 0.00 | 72 | 1008.8 |
| 20260510014528 | 27 | 132 | 0.0 | 0.0 | 0.00 | 0.00 | 0.00 | 72 | 1008.7 |
| 20260510014002 | 27 | 132 | 1.6 | 0.0 | 0.00 | 0.00 | 0.00 | 70 | 1008.6 |
| 20260510013544 | 27 | 132 | 3.2 | 0.0 | 0.00 | 0.00 | 0.00 | 70 | 1008.6 |
| 20260510013043 | 27 | 132 | 3.2 | 0.0 | 0.00 | 0.00 | 0.00 | 69 | 1008.6 |
| 20260510012518 | 27 | 132 | 3.2 | 0.0 | 0.00 | 0.00 | 0.00 | 68 | 1008.5 |
| 20260510012055 | 27 | 130 | 3.2 | 0.0 | 0.00 | 0.00 | 0.00 | 68 | 1008.5 |
| 20260510011542 | 27 | 130 | 3.2 | 0.0 | 0.00 | 0.00 | 0.00 | 68 | 1008.5 |
| 20260510011017 | 28 | 130 | 3.2 | 0.0 | 0.00 | 0.00 | 0.00 | 68 | 1008.5 |
| 20260510010553 | 28 | 130 | 1.6 | 0.0 | 0.00 | 0.00 | 0.00 | 68 | 1008.5 |
| 20260510010136 | 28 | 130 | 1.6 | 0.0 | 0.00 | 0.00 | 0.00 | 67 | 1008.5 |
| 20260510005530 | 28 | 130 | 3.2 | 0.0 | 0.00 | 0.00 | 0.00 | 67 | 1008.4 |
| 20260510005005 | 29 | 130 | 3.2 | 0.0 | 0.00 | 0.00 | 0.00 | 66 | 1008.4 |
| 20260510004505 | 29 | 130 | 1.6 | 0.0 | 0.00 | 0.00 | 0.00 | 65 | 1008.3 |
| 20260510004044 | 30 | 130 | 1.6 | 0.0 | 0.00 | 0.00 | 0.00 | 64 | 1008.3 |
| 20260510003520 | 30 | 130 | 3.2 | 0.0 | 0.00 | 0.00 | 0.00 | 63 | 1008.2 |
| 20260510003024 | 30 | 130 | 3.2 | 0.0 | 0.00 | 0.00 | 0.00 | 62 | 1008.1 |
| 20260510002601 | 30 | 130 | 3.2 | 0.0 | 0.00 | 0.00 | 0.00 | 61 | 1008.1 |
| 20260510002029 | 31 | 130 | 3.2 | 0.0 | 0.00 | 0.00 | 0.00 | 61 | 1008.1 |
| 20260510001535 | 31 | 130 | 4.8 | 0.0 | 0.00 | 0.00 | 0.00 | 59 | 1008.1 |
| 20260510001008 | 31 | 130 | 3.2 | 0.0 | 0.00 | 0.00 | 0.00 | 57 | 1008.0 |
| 20260510000544 | 31 | 129 | 0.0 | 0.0 | 0.00 | 0.00 | 0.00 | 54 | 1008.0 |
| 20260510000056 | 31 | 129 | 1.6 | 0.0 | 0.00 | 0.00 | 0.00 | 54 | 1007.9 |
| 20260509235536 | 32 | 129 | 1.6 | 0.0 | 0.00 | 0.00 | 0.00 | 52 | 1007.9 |
| 20260509235008 | 32 | 129 | 1.6 | 0.0 | 0.00 | 0.00 | 0.00 | 52 | 1007.9 |
| 20260509234516 | 32 | 129 | 1.6 | 0.0 | 0.00 | 0.00 | 0.00 | 51 | 1007.8 |
| 20260509234051 | 32 | 129 | 1.6 | 0.0 | 0.00 | 0.00 | 0.00 | 52 | 1007.8 |
| 20260509233524 | 32 | 129 | 1.6 | 0.0 | 0.00 | 0.00 | 0.00 | 48 | 1007.7 |
| 20260509233031 | 32 | 129 | 0.0 | 0.0 | 0.00 | 0.00 | 0.00 | 50 | 1007.7 |
| 20260509232510 | 32 | 129 | 1.6 | 0.0 | 0.00 | 0.00 | 0.00 | 48 | 1007.7 |
| 20260509232040 | 32 | 129 | 1.6 | 0.0 | 0.00 | 0.00 | 0.00 | 47 | 1007.7 |
| 20260509231532 | 32 | 129 | 1.6 | 0.0 | 0.00 | 0.00 | 0.00 | 48 | 1007.7 |
| 20260509231004 | 32 | 129 | 1.6 | 0.0 | 0.00 | 0.00 | 0.00 | 46 | 1007.6 |
| 20260509230540 | 32 | 129 | 0.0 | 0.0 | 0.00 | 0.00 | 0.00 | 50 | 1007.7 |
| 20260509230029 | 32 | 129 | 1.6 | 0.0 | 0.00 | 0.00 | 0.00 | 49 | 1007.7 |
| 20260509225503 | 32 | 129 | 3.2 | 0.0 | 0.00 | 0.00 | 0.00 | 48 | 1007.7 |
| 20260509225045 | 32 | 129 | 1.6 | 0.0 | 0.00 | 0.00 | 0.00 | 48 | 1007.8 |
| 20260509224551 | 33 | 129 | 1.6 | 0.0 | 0.00 | 0.00 | 0.00 | 47 | 1007.7 |
| 20260509224030 | 33 | 129 | 1.6 | 0.0 | 0.00 | 0.00 | 0.00 | 50 | 1007.8 |
| 20260509223503 | 33 | 129 | 0.0 | 0.0 | 0.00 | 0.00 | 0.00 | 47 | 1007.8 |
| 20260509223006 | 33 | 129 | 1.6 | 0.0 | 0.00 | 0.00 | 0.00 | 49 | 1007.8 |
| 20260509222547 | 32 | 130 | 1.6 | 0.0 | 0.00 | 0.00 | 0.00 | 47 | 1007.7 |
| 20260509222023 | 32 | 129 | 1.6 | 0.0 | 0.00 | 0.00 | 0.00 | 50 | 1007.7 |
| 20260509221529 | 32 | 130 | 1.6 | 0.0 | 0.00 | 0.00 | 0.00 | 50 | 1007.6 |
| 20260509221106 | 32 | 125 | 3.2 | 0.0 | 0.00 | 0.00 | 0.00 | 51 | 1007.6 |
| 20260509220536 | 32 | 121 | 1.6 | 0.0 | 0.00 | 0.00 | 0.00 | 50 | 1007.7 |
| 20260509220035 | 32 | 121 | 1.6 | 0.0 | 0.00 | 0.00 | 0.00 | 48 | 1007.8 |
| 20260509215512 | 32 | 121 | 3.2 | 0.0 | 0.00 | 0.00 | 0.00 | 46 | 1007.9 |
| 20260509215055 | 32 | 107 | 1.6 | 0.0 | 0.00 | 0.00 | 0.00 | 50 | 1007.8 |
| 20260509214556 | 32 | 159 | 0.0 | 0.0 | 0.00 | 0.00 | 0.00 | 48 | 1007.9 |
| 20260509214033 | 32 | 130 | 1.6 | 0.0 | 0.00 | 0.00 | 0.00 | 48 | 1007.9 |
| 20260509213607 | 32 | 130 | 3.2 | 0.0 | 0.00 | 0.00 | 0.00 | 47 | 1008.0 |
| 20260509213055 | 32 | 130 | 3.2 | 0.0 | 0.00 | 0.00 | 0.00 | 46 | 1008.1 |
| 20260509212527 | 32 | 68 | 1.6 | 0.0 | 0.00 | 0.00 | 0.00 | 48 | 1008.1 |
| 20260509212008 | 32 | 68 | 1.6 | 0.0 | 0.00 | 0.00 | 0.00 | 49 | 1008.2 |
| 20260509211557 | 32 | 68 | 1.6 | 0.0 | 0.00 | 0.00 | 0.00 | 47 | 1008.2 |
| 20260509211029 | 33 | 68 | 1.6 | 0.0 | 0.00 | 0.00 | 0.00 | 46 | 1008.3 |
| 20260509210509 | 33 | 68 | 3.2 | 0.0 | 0.00 | 0.00 | 0.00 | 47 | 1008.4 |
| 20260509210009 | 33 | 68 | 1.6 | 0.0 | 0.00 | 0.00 | 0.00 | 47 | 1008.5 |
| 20260509205549 | 32 | 5 | 1.6 | 0.0 | 0.00 | 0.00 | 0.00 | 47 | 1008.5 |
| 20260509205026 | 32 | 5 | 1.6 | 0.0 | 0.00 | 0.00 | 0.00 | 48 | 1008.7 |
| 20260509204525 | 32 | 5 | 1.6 | 0.0 | 0.00 | 0.00 | 0.00 | 50 | 1008.8 |
| 20260509204104 | 32 | 5 | 1.6 | 0.0 | 0.00 | 0.00 | 0.00 | 48 | 1008.8 |
| 20260509203536 | 31 | 5 | 1.6 | 0.0 | 0.00 | 0.00 | 0.00 | 54 | 1008.9 |
| 20260509203102 | 31 | 346 | 1.6 | 0.0 | 0.00 | 0.00 | 0.00 | 52 | 1009.0 |
| 20260509202510 | 31 | 344 | 1.6 | 0.0 | 0.00 | 0.00 | 0.00 | 52 | 1009.1 |
| 20260509202048 | 31 | 344 | 3.2 | 0.0 | 0.00 | 0.00 | 0.00 | 51 | 1009.2 |
| 20260509201535 | 31 | 346 | 3.2 | 0.0 | 0.00 | 0.00 | 0.00 | 53 | 1009.4 |
| 20260509201012 | 31 | 185 | 3.2 | 0.0 | 0.00 | 0.00 | 0.00 | 52 | 1009.5 |
| 20260509200548 | 31 | 272 | 1.6 | 0.0 | 0.00 | 0.00 | 0.00 | 53 | 1009.6 |
| 20260509200037 | 31 | 274 | 1.6 | 0.0 | 0.00 | 0.00 | 0.00 | 52 | 1009.6 |
| 20260509195515 | 31 | 275 | 1.6 | 0.0 | 0.00 | 0.00 | 0.00 | 52 | 1009.6 |
| 20260509195052 | 31 | 274 | 1.6 | 0.0 | 0.00 | 0.00 | 0.00 | 54 | 1009.6 |
| 20260509194540 | 31 | 272 | 1.6 | 0.0 | 0.00 | 0.00 | 0.00 | 55 | 1009.6 |
| 20260509194015 | 30 | 272 | 1.6 | 0.0 | 0.00 | 0.00 | 0.00 | 57 | 1009.5 |
| 20260509193549 | 30 | 272 | 1.6 | 0.0 | 0.00 | 0.00 | 0.00 | 54 | 1009.5 |
| 20260509193133 | 30 | 315 | 1.6 | 0.0 | 0.00 | 0.00 | 0.00 | 60 | 1009.6 |
| 20260509192527 | 30 | 315 | 1.6 | 0.0 | 0.00 | 0.00 | 0.00 | 61 | 1009.7 |
| 20260509192104 | 29 | 315 | 1.6 | 0.0 | 0.00 | 0.00 | 0.00 | 66 | 1009.7 |
| 20260509191612 | 29 | 309 | 3.2 | 0.0 | 0.00 | 0.00 | 0.00 | 67 | 1009.8 |
| 20260509191027 | 28 | 309 | 3.2 | 0.0 | 0.00 | 0.00 | 0.00 | 68 | 1010.0 |
| 20260509190501 | 28 | 126 | 3.2 | 0.0 | 0.00 | 0.00 | 0.00 | 71 | 1010.1 |
| 20260509190003 | 28 | 133 | 3.2 | 0.0 | 0.00 | 0.00 | 0.00 | 72 | 1010.3 |
| 20260509185547 | 28 | 86 | 1.6 | 0.0 | 0.00 | 0.00 | 0.00 | 72 | 1010.4 |
| 20260509185026 | 28 | 142 | 1.6 | 0.0 | 0.00 | 0.00 | 0.00 | 73 | 1010.4 |
| 20260509184531 | 27 | 142 | 1.6 | 0.0 | 0.00 | 0.00 | 0.00 | 73 | 1010.4 |
| 20260509184101 | 27 | 142 | 0.0 | 0.0 | 0.00 | 0.00 | 0.00 | 77 | 1010.5 |
| 20260509183536 | 27 | 142 | 0.0 | 0.0 | 0.00 | 0.00 | 0.00 | 77 | 1010.5 |